Temperature
5 6 6 7 7 8 8 8 8 8 8 8 9 9 9 9 9 9 9 9 9 9 9 9 9 9 9 9 9 9 9 9 9 9 9 9 9 9 10 10 10 10 10
4 5 5 6 6 7 7 7 7 7 7 7 8 8 8 8 8 8 8 8 8 8 8 9 9 9 9 9 9 9 9 9 9 9 8 8 9 9 9 9 9 10 9
3 3 4 4 5 5 6 6 6 6 6 7 7 7 7 8 8 8 8 8 8 8 8 8 8 8 9 9 9 9 9 9 8 8 8 8 8 8 9 9 9 9 9
2 2 3 3 4 4 5 5 5 5 6 6 6 6 6 7 7 7 7 7 7 7 7 7 8 8 8 8 8 8 8 8 8 8 8 8 8 8 8 8 8 8 8
1 1 2 2 3 3 4 4 5 5 5 5 5 5 6 6 6 6 6 7 7 7 7 7 7 7 8 8 8 8 8 8 8 8 8 8 8 8 8 8 8 8 8
0 1 1 2 2 3 3 4 4 4 4 4 5 5 5 5 5 6 6 6 6 6 6 6 7 7 7 7 7 7 7 8 8 8 8 8 8 8 8 8 8 8 8
-0 -0 0 1 1 2 2 3 3 3 4 4 4 4 4 4 5 5 5 5 5 6 6 6 6 6 7 7 7 7 7 7 7 7 7 7 7 7 8 7 7 7 7
-1 -1 -1 -0 0 1 1 2 2 2 3 3 3 3 4 4 4 5 5 5 5 5 6 6 6 6 6 6 6 6 7 6 7 6 6 7 7 7 7 7 7 6 6
-1 -1 -1 -1 -0 -0 0 0 1 2 2 2 3 3 3 3 4 4 4 4 4 5 5 5 5 5 5 5 6 6 6 6 6 6 6 6 6 6 6 6 6 6 6
-2 -2 -2 -2 -1 -1 -0 -0 0 1 1 1 2 2 3 3 3 3 4 4 4 4 4 4 5 5 5 5 5 5 5 5 6 6 6 6 6 6 6 6 6 6 6
-3 -2 -2 -2 -2 -2 -1 -1 -1 -0 0 1 1 2 2 2 3 3 3 3 3 4 4 4 4 4 4 4 4 5 5 5 5 5 5 5 5 5 5 5 5 5 5
-3 -3 -3 -3 -3 -2 -2 -2 -2 -1 -1 -0 0 1 1 2 2 2 3 3 3 3 3 4 4 4 4 4 4 4 4 4 4 5 5 5 5 5 5 5 5 5 5
-4 -4 -3 -3 -3 -3 -3 -3 -2 -2 -1 -1 -1 0 0 1 1 1 2 2 2 2 3 3 3 3 3 3 4 4 4 4 4 4 4 5 4 4 4 4 4 4 4
-5 -5 -4 -4 -4 -4 -4 -4 -3 -3 -2 -2 -1 -1 -0 0 0 1 1 1 1 2 2 2 2 3 3 3 3 3 3 3 3 3 3 4 4 4 4 4 4 4 4
-5 -5 -5 -5 -5 -5 -5 -4 -4 -3 -3 -3 -2 -2 -1 -1 -0 0 0 0 1 1 1 1 2 2 2 2 2 2 2 3 3 3 3 3 3 3 3 3 3 3 3
-6 -6 -6 -6 -6 -6 -5 -5 -4 -4 -4 -3 -3 -2 -2 -1 -1 -1 -0 -0 -0 0 0 1 1 1 1 2 2 2 2 2 2 2 2 2 2 3 2 2 2 2 3
-7 -7 -7 -6 -6 -6 -6 -6 -5 -4 -4 -4 -4 -3 -3 -2 -1 -1 -1 -1 -1 -0 -0 -0 0 1 1 1 1 1 1 1 2 2 2 2 2 2 2 2 2 2 2
-7 -7 -7 -7 -7 -6 -6 -6 -5 -5 -5 -4 -4 -4 -3 -3 -2 -2 -2 -1 -1 -1 -1 -1 -0 0 0 0 1 1 1 1 1 1 2 2 2 1 1 2 2 2 2
-7 -7 -7 -7 -7 -7 -7 -6 -5 -5 -5 -5 -4 -4 -4 -4 -3 -3 -2 -2 -2 -2 -1 -1 -1 -0 -0 -0 0 0 0 1 1 1 1 1 1 1 1 1 1 1 2
-8 -8 -8 -7 -7 -7 -7 -6 -6 -6 -5 -5 -5 -5 -4 -4 -4 -3 -3 -3 -3 -2 -2 -2 -1 -1 -1 -1 -0 -0 -0 0 0 0 0 0 0 0 0 0 1 1 1
-8 -8 -8 -8 -8 -8 -7 -7 -7 -6 -6 -6 -5 -5 -5 -5 -4 -4 -3 -3 -3 -3 -3 -2 -2 -2 -1 -1 -1 -1 -1 -1 -1 -0 -0 -0 -0 -0 -0 -0 0 0 0
-8 -8 -8 -8 -8 -8 -8 -8 -7 -7 -6 -6 -6 -6 -5 -5 -5 -4 -4 -4 -4 -4 -3 -3 -2 -2 -2 -2 -2 -2 -1 -1 -1 -1 -1 -1 -1 -1 -0 -0 -0 -0 -0
-9 -9 -9 -9 -8 -8 -8 -8 -8 -7 -7 -6 -6 -6 -6 -6 -5 -5 -5 -4 -4 -4 -4 -4 -3 -3 -3 -2 -2 -2 -2 -2 -2 -1 -1 -1 -1 -1 -1 -1 -1 -1 -1
-9 -9 -9 -9 -9 -9 -9 -8 -8 -8 -7 -7 -7 -7 -6 -6 -6 -5 -5 -5 -5 -5 -5 -4 -4 -4 -3 -3 -3 -3 -2 -2 -2 -2 -2 -2 -2 -2 -1 -1 -1 -1 -2
-10 -10 -10 -10 -10 -9 -9 -9 -8 -8 -8 -8 -7 -7 -7 -7 -6 -6 -6 -6 -5 -5 -5 -5 -4 -4 -4 -3 -3 -3 -3 -3 -3 -3 -3 -2 -2 -2 -2 -2 -2 -2 -2
-10 -10 -10 -10 -10 -9 -9 -9 -9 -9 -9 -9 -8 -8 -8 -7 -7 -7 -6 -6 -6 -5 -5 -5 -5 -5 -4 -4 -4 -4 -4 -4 -3 -3 -3 -3 -3 -3 -3 -3 -3 -3 -3
Wind_Speed
6 8 9 8 8 7 6 4 3 2 0 0 1 1 2 2 2 2 3 3 3 3 3 2 2 3 3 3 3 3 3 1 2 2 1 2 1 1 1 1 2 2 2
10 10 10 9 8 7 7 6 5 3 2 2 2 2 2 3 3 2 3 3 3 4 3 3 3 3 3 3 3 3 2 1 2 2 2 0 1 2 1 0 1 1 2
8 9 9 8 8 8 7 6 6 5 4 3 1 1 0 1 1 2 2 2 4 4 4 3 3 3 3 4 4 4 4 3 1 2 3 3 3 1 1 1 1 1 1
8 8 8 8 8 7 6 6 7 6 6 4 2 1 2 3 3 3 3 3 3 4 4 4 4 4 3 4 4 4 3 5 4 2 1 2 3 2 1 1 1 1 1
7 7 7 7 7 7 6 6 7 7 6 5 4 3 3 3 2 2 3 3 3 4 4 4 4 4 3 4 4 3 3 3 4 3 2 1 1 1 2 2 2 1 2
7 7 8 8 8 8 8 8 7 7 7 6 4 4 3 3 2 2 3 3 3 3 3 4 4 4 3 4 4 4 4 3 3 3 3 3 3 3 3 3 3 2 2
8 9 10 10 10 10 10 9 9 8 8 7 6 5 4 3 4 4 4 3 3 3 4 3 3 4 4 4 3 3 4 4 4 4 3 3 3 2 3 3 2 2 2
8 8 9 8 9 9 9 9 9 8 8 7 7 6 5 3 3 3 3 4 4 4 4 4 3 4 4 4 4 3 3 3 4 4 4 3 3 3 3 3 3 2 2
9 9 9 9 9 9 9 9 9 9 8 8 8 7 6 5 3 3 3 2 3 3 3 3 3 3 4 4 4 3 4 4 4 4 4 3 3 2 3 3 4 4 3
9 10 9 9 8 8 8 8 8 8 8 8 7 7 7 6 4 2 3 3 3 3 3 3 4 3 3 4 4 4 3 4 3 3 4 3 2 2 2 3 3 3 4
9 9 9 9 8 8 8 9 9 9 9 9 8 8 7 6 4 3 3 3 3 3 3 4 4 4 4 4 4 4 4 4 3 3 4 4 3 3 2 2 2 2 3
9 9 9 9 9 10 10 10 9 9 9 9 8 7 7 6 5 4 4 4 3 3 3 3 3 4 4 4 5 5 4 4 4 4 3 4 3 3 3 3 3 3 3
10 10 10 10 11 11 11 11 10 9 10 9 8 8 7 7 6 5 4 3 3 3 2 2 3 4 4 4 4 4 4 4 4 4 4 4 4 4 3 4 4 3 3
9 10 11 11 11 11 11 11 11 9 10 9 8 8 7 7 7 5 4 3 3 2 2 2 3 3 3 4 4 4 4 4 4 4 4 4 5 5 5 4 4 4 3
11 11 11 11 11 12 12 12 11 10 9 9 8 8 8 7 7 5 4 4 4 3 2 2 2 2 2 3 4 4 4 4 4 4 4 4 5 5 5 4 4 4 4
11 12 12 12 12 12 13 13 12 11 9 8 7 8 8 7 7 6 4 4 4 3 3 3 3 3 2 3 3 3 4 4 4 4 4 3 4 5 6 5 5 6 6
10 11 12 11 11 11 11 12 12 11 10 8 7 7 8 7 7 6 4 4 4 4 3 3 3 2 3 3 2 2 2 3 4 4 3 3 3 4 4 5 5 6 7
11 11 11 11 11 10 11 11 11 10 10 9 8 8 8 8 7 5 5 4 4 4 3 3 3 3 3 4 3 2 2 3 3 4 4 4 4 4 4 3 3 4 4
9 9 10 10 11 11 11 11 11 10 10 10 9 8 7 7 7 6 5 4 4 4 3 3 3 3 4 4 4 2 2 2 2 2 2 3 3 5 4 4 4 4 3
8 9 10 10 10 11 10 11 11 10 10 10 9 8 7 7 7 6 5 4 3 4 3 3 3 3 4 4 4 3 2 2 2 2 2 3 3 4 4 4 4 5 4
9 10 10 9 10 11 10 11 11 11 11 10 9 8 7 7 6 6 4 4 4 3 3 3 3 3 4 4 5 4 2 2 2 2 2 2 3 3 3 3 3 5 3
10 10 10 10 10 10 10 11 11 12 11 9 9 8 8 6 6 5 5 4 3 3 3 3 4 3 3 4 4 5 3 2 2 3 2 2 3 3 3 2 2 2 2
10 9 10 11 10 9 9 10 12 11 10 9 8 8 8 6 6 5 5 4 3 3 3 3 3 3 2 3 4 4 4 3 2 2 2 2 3 2 2 2 2 1 2
9 9 10 11 11 11 10 10 11 10 9 9 8 7 6 6 5 4 4 3 3 3 3 3 3 3 3 2 2 2 2 2 2 1 1 2 1 1 0 1 1 1 2
9 9 9 10 11 11 11 11 11 10 9 8 7 7 6 5 5 5 4 4 4 4 4 3 3 3 3 4 4 2 2 2 2 1 0 0 0 0 0 0 0 1 1
9 10 10 11 11 11 11 11 11 9 8 8 7 6 5 5 4 5 5 7 6 7 7 5 4 4 4 4 4 3 3 3 3 1 1 1 1 1 1 1 0 0 1
Wind_Direction
3 15 15 14 16 16 11 360 4 339 239 205 198 208 233 243 250 241 219 206 203 201 189 187 176 174 181 176 162 151 149 144 144 115 60 4 352 282 230 174 148 138 152
13 13 12 15 15 11 4 2 351 336 316 262 232 219 223 229 235 246 231 214 214 212 207 191 188 186 180 166 162 151 161 165 158 143 136 43 340 327 291 231 173 163 134
14 7 8 6 8 5 359 353 350 342 331 327 313 328 303 283 260 257 231 245 231 222 214 206 193 192 184 179 179 175 173 179 193 171 165 171 209 249 312 283 222 180 162
13 9 6 3 359 350 349 356 354 350 342 337 331 304 240 248 258 236 234 244 240 232 219 209 204 201 196 187 188 181 180 174 187 211 221 201 171 176 219 296 283 237 213
8 4 358 353 351 350 351 353 354 351 347 343 331 302 283 266 275 244 232 231 237 232 226 213 208 205 201 194 192 183 184 187 189 191 193 197 213 192 187 224 255 283 259
360 355 353 356 356 357 356 355 354 346 343 347 337 321 294 283 270 263 242 240 234 233 230 223 214 210 203 196 196 189 190 197 195 194 189 186 188 190 185 207 218 238 259
0 357 356 356 354 354 355 354 352 346 342 341 335 325 303 272 251 246 233 242 240 240 224 230 216 216 210 199 190 189 198 199 196 200 206 204 209 189 181 191 213 233 264
359 358 356 352 347 347 349 348 345 340 340 339 333 330 318 296 278 266 248 236 240 240 219 225 221 221 208 202 193 195 204 202 203 207 202 203 211 198 189 185 186 217 257
353 353 352 351 349 346 343 339 338 334 335 336 331 330 324 309 292 290 273 241 248 253 228 217 221 217 204 202 197 205 206 201 208 206 203 205 209 198 199 189 184 191 228
354 352 350 348 345 342 338 339 337 332 331 333 330 329 326 317 308 301 309 286 257 250 237 217 211 207 207 204 198 204 202 199 215 212 199 208 209 196 190 193 198 198 211
348 347 345 346 345 343 344 343 339 337 335 332 330 332 332 328 324 318 312 303 277 251 240 225 208 206 208 205 201 202 197 199 215 222 207 209 204 199 200 194 196 203 200
347 345 343 347 349 348 345 341 339 336 331 328 329 331 328 330 327 321 312 311 292 278 251 230 220 215 213 208 201 201 201 200 207 218 213 211 204 203 203 199 206 213 210
346 348 351 351 348 346 343 339 335 332 330 330 331 332 331 331 322 309 307 309 295 284 278 245 234 225 219 213 207 202 201 204 208 214 216 212 200 212 212 210 214 215 217
348 351 349 347 346 342 339 337 331 329 330 330 327 326 325 322 314 302 300 302 301 289 284 274 256 244 227 215 206 204 203 214 220 219 219 214 205 211 211 214 214 209 207
349 346 342 339 340 340 340 337 333 330 329 327 324 320 318 318 320 312 308 308 309 295 278 270 268 262 239 220 206 200 207 216 224 227 227 229 225 217 214 216 209 203 207
339 339 337 336 336 337 336 334 333 330 325 320 319 320 322 321 322 319 319 316 311 294 285 274 265 264 258 256 242 220 206 216 222 228 229 233 233 225 227 229 222 211 209
333 334 332 330 329 329 329 328 327 327 325 320 320 322 324 321 319 317 319 316 315 316 304 294 282 270 266 275 264 251 216 212 220 223 225 238 245 247 225 232 238 238 236
329 327 327 326 325 325 328 327 328 329 327 324 321 322 323 317 314 315 312 313 316 311 297 295 289 284 286 290 281 269 245 231 224 220 219 224 234 233 221 213 224 233 237
315 315 317 318 321 324 326 328 329 329 328 322 320 317 317 313 311 310 304 308 311 310 299 290 290 283 283 286 282 270 232 229 235 238 234 224 227 237 231 219 220 234 248
318 319 319 320 324 325 328 331 329 328 325 319 315 313 314 310 304 299 295 300 299 298 300 294 285 277 273 284 284 270 220 223 237 246 252 254 249 249 238 221 212 225 233
318 322 323 324 323 325 330 329 327 324 317 315 315 315 314 307 302 303 295 294 294 297 298 294 290 279 277 282 282 279 233 212 220 232 245 255 260 258 249 239 224 228 217
321 324 324 323 324 328 330 327 325 320 318 317 316 315 314 309 309 308 307 298 282 280 285 285 291 283 276 280 276 276 276 262 215 227 237 249 256 262 259 245 240 234 206
318 321 320 320 323 327 328 323 320 321 321 321 316 315 314 311 310 306 303 303 291 276 273 269 275 282 278 275 278 270 277 282 262 240 249 261 268 265 255 243 230 212 187
317 319 320 320 320 323 323 319 317 321 321 319 318 316 314 313 310 304 298 292 286 283 279 276 273 273 268 263 258 252 263 273 277 266 268 279 270 268 265 236 214 178 179
316 316 316 315 315 319 319 320 321 321 320 318 317 318 314 309 309 308 296 286 274 276 281 274 272 268 265 273 278 267 253 243 240 223 201 355 22 131 49 75 119 144 152
313 316 316 315 314 316 316 319 321 319 316 317 319 317 316 312 310 310 315 311 304 303 298 298 296 287 291 293 278 274 269 257 231 223 207 222 213 213 217 217 206 157 180
Height
1512 1510 1509 1508 1508 1507 1507 1508 1508 1507 1508 1508 1508 1509 1510 1511 1512 1513 1513 1514 1515 1516 1517 1518 1519 1520 1521 1522 1523 1525 1526 1528 1529 1531 1532 1533 1534 1535 1536 1537 1538 1539 1541
1510 1509 1508 1507 1506 1505 1505 1505 1505 1505 1505 1505 1505 1505 1507 1507 1508 1509 1510 1510 1511 1512 1514 1515 1515 1516 1518 1518 1520 1521 1523 1525 1527 1528 1529 1530 1532 1532 1533 1534 1535 1536 1537
1511 1509 1508 1506 1505 1504 1503 1503 1502 1502 1502 1502 1502 1502 1503 1503 1504 1505 1505 1506 1508 1509 1510 1511 1512 1513 1514 1515 1516 1518 1520 1521 1523 1525 1527 1528 1527 1529 1530 1531 1532 1533 1534
1512 1510 1508 1506 1504 1503 1502 1501 1500 1500 1500 1499 1499 1498 1498 1498 1499 1500 1501 1502 1504 1505 1506 1507 1508 1509 1510 1511 1513 1515 1516 1518 1519 1522 1523 1525 1525 1526 1526 1528 1529 1530 1531
1513 1510 1508 1506 1504 1502 1501 1499 1498 1498 1497 1497 1496 1495 1495 1495 1496 1496 1497 1498 1500 1501 1502 1503 1504 1505 1507 1508 1509 1511 1513 1514 1516 1517 1519 1521 1522 1522 1523 1523 1525 1526 1528
1513 1511 1508 1505 1503 1501 1499 1497 1496 1495 1494 1493 1493 1492 1492 1492 1492 1492 1492 1493 1494 1496 1497 1498 1500 1501 1503 1504 1505 1506 1509 1510 1512 1514 1515 1516 1518 1518 1519 1520 1521 1522 1524
1513 1510 1507 1504 1502 1499 1497 1496 1494 1492 1491 1490 1489 1489 1488 1488 1488 1488 1488 1489 1490 1491 1492 1494 1495 1496 1498 1499 1501 1502 1504 1506 1507 1509 1511 1512 1514 1515 1516 1517 1517 1518 1520
1514 1511 1507 1504 1502 1499 1496 1494 1492 1490 1488 1487 1486 1485 1485 1484 1484 1484 1485 1485 1486 1486 1487 1489 1490 1492 1493 1495 1497 1498 1500 1501 1503 1504 1506 1508 1509 1511 1512 1513 1514 1514 1515
1514 1510 1507 1504 1501 1498 1495 1493 1490 1488 1486 1484 1483 1481 1481 1480 1480 1480 1481 1481 1482 1483 1483 1485 1486 1488 1489 1491 1492 1494 1495 1497 1498 1500 1502 1503 1505 1506 1508 1509 1510 1512 1511
1513 1510 1507 1504 1500 1497 1494 1491 1489 1486 1484 1482 1480 1478 1477 1476 1476 1476 1476 1477 1477 1478 1479 1480 1482 1483 1485 1486 1488 1489 1491 1492 1494 1495 1497 1498 1500 1501 1503 1504 1506 1507 1508
1513 1510 1506 1503 1500 1496 1493 1490 1486 1484 1481 1479 1477 1475 1474 1473 1473 1472 1473 1473 1473 1474 1475 1476 1477 1479 1481 1482 1483 1485 1486 1488 1489 1491 1492 1493 1495 1497 1498 1499 1501 1502 1503
1513 1510 1506 1502 1498 1494 1491 1488 1484 1481 1479 1477 1474 1472 1471 1470 1469 1469 1469 1469 1470 1470 1471 1472 1473 1474 1476 1478 1479 1480 1482 1483 1484 1486 1487 1489 1491 1492 1493 1494 1495 1497 1498
1512 1508 1504 1501 1497 1493 1490 1486 1483 1480 1477 1474 1472 1470 1468 1467 1466 1465 1465 1465 1466 1466 1467 1468 1468 1470 1472 1473 1474 1476 1477 1479 1480 1481 1482 1484 1486 1487 1488 1489 1490 1491 1492
1512 1508 1504 1500 1496 1492 1488 1484 1481 1478 1475 1472 1469 1467 1466 1464 1463 1462 1462 1462 1462 1462 1462 1463 1464 1466 1467 1468 1470 1471 1473 1474 1475 1477 1478 1479 1481 1482 1483 1484 1485 1486 1487
1511 1507 1503 1499 1495 1490 1486 1482 1479 1476 1473 1470 1467 1465 1463 1462 1460 1459 1459 1458 1458 1458 1458 1459 1460 1461 1462 1464 1465 1467 1468 1469 1471 1472 1473 1475 1476 1477 1478 1479 1480 1481 1482
1511 1507 1502 1498 1493 1489 1484 1480 1476 1473 1470 1467 1465 1463 1461 1459 1458 1457 1455 1455 1455 1455 1455 1456 1456 1457 1458 1460 1462 1463 1464 1465 1466 1467 1468 1470 1471 1472 1473 1474 1475 1476 1477
1510 1506 1501 1497 1492 1488 1483 1479 1475 1471 1468 1465 1462 1460 1458 1456 1455 1455 1453 1452 1452 1451 1452 1452 1453 1454 1455 1456 1458 1459 1460 1461 1462 1463 1464 1464 1466 1467 1468 1469 1470 1471 1472
1508 1504 1499 1495 1490 1486 1481 1477 1473 1469 1465 1462 1460 1458 1456 1454 1453 1452 1451 1450 1449 1449 1449 1450 1450 1451 1452 1453 1454 1455 1456 1457 1458 1459 1459 1460 1461 1462 1463 1464 1465 1466 1467
1507 1502 1498 1493 1488 1483 1479 1474 1470 1466 1463 1460 1457 1455 1454 1452 1451 1449 1448 1447 1447 1447 1447 1447 1447 1448 1449 1450 1450 1451 1452 1453 1454 1454 1455 1456 1457 1458 1459 1460 1460 1461 1462
1504 1499 1495 1490 1485 1480 1476 1471 1467 1464 1460 1457 1455 1453 1451 1449 1448 1446 1446 1445 1445 1444 1444 1444 1445 1445 1445 1446 1447 1448 1448 1449 1450 1450 1451 1452 1453 1454 1454 1455 1456 1456 1457
1501 1496 1491 1486 1482 1477 1473 1468 1464 1461 1458 1455 1452 1450 1448 1446 1445 1444 1443 1442 1442 1441 1441 1441 1441 1442 1442 1443 1444 1444 1445 1445 1446 1447 1447 1448 1449 1450 1450 1451 1451 1452 1452
1497 1492 1487 1483 1479 1475 1470 1465 1461 1458 1455 1452 1449 1447 1445 1443 1442 1441 1440 1439 1439 1438 1438 1437 1438 1438 1439 1439 1440 1441 1441 1442 1443 1443 1444 1444 1445 1446 1446 1447 1447 1448 1448
1494 1489 1485 1480 1475 1471 1467 1462 1458 1455 1452 1449 1446 1444 1442 1440 1439 1438 1436 1436 1435 1435 1434 1434 1434 1434 1435 1436 1436 1437 1438 1438 1439 1439 1440 1441 1441 1442 1442 1442 1443 1444 1444
1490 1486 1481 1476 1472 1468 1464 1460 1456 1452 1449 1446 1443 1441 1439 1437 1436 1435 1434 1433 1432 1432 1431 1431 1431 1431 1431 1432 1432 1433 1434 1434 1435 1435 1436 1437 1437 1438 1438 1438 1439 1440 1440
1487 1483 1478 1474 1469 1465 1461 1457 1453 1449 1446 1443 1440 1438 1436 1434 1433 1431 1430 1430 1429 1430 1429 1428 1428 1428 1428 1428 1429 1429 1429 1430 1431 1432 1432 1432 1433 1433 1434 1434 1435 1436 1437
1484 1480 1475 1471 1466 1462 1458 1454 1450 1447 1443 1440 1437 1435 1433 1432 1430 1428 1427 1427 1427 1426 1426 1426 1426 1425 1426 1426 1426 1426 1426 1427 1427 1428 1428 1428 1429 1429 1430 1431 1432 1433 1434